sat.trackr.live / text

‹ back to catalog

STARLINK-2629

NORAD 48686 · 2021-044BA

PAYLOAD ACTIVE UNKNOWN

§ Identity

Operator
Country
US
Launch date
2021-05-26
Launch site
AFETR
Launch vehicle
Mass (kg)
RCS (m²)

Purposes: comms

External: N2YO · Heavens-Above · Gunter

§ Orbital elements

Epoch: 2026-09-19T10:40:43.242816Z

Period
94.01 min
Inclination
53.1588°
Eccentricity
0.0001235
Mean motion
15.31707588 rev/d
Perigee alt
469.9 km
Apogee alt
471.6 km
Semi-major
6,848.9 km
B*
-3.0713e-5
RAAN
253.6699°
Arg perigee
99.3295°
Mean anomaly
260.7846°
Rev number
29,404

§ Raw data

STARLINK-26291 48686U 21044BA  26262.44494494 -.00001318  00000+0 -30713-4 0  99952 48686  53.1588 253.6699 0001235  99.3295 260.7846 15.31707588294049

JSON: /api/v1/satellites/48686 · /tle

For live sub-satellite position, see the globe view (requires WebGL).

§ Visibility from observer

Set your observer location to see the next 7 days of passes ≥ 10°. The values pass through the URL so the page stays shareable.

No JS? Fill the form by hand. The geolocation button needs JavaScript.